sat.trackr.live / text

‹ back to catalog

FLOCK 4H-15

NORAD 66718 · 2025-276BE

PAYLOAD ACTIVE UNKNOWN

§ Identity

Operator
Country
US
Launch date
2025-11-28
Launch site
AFWTR
Launch vehicle
Mass (kg)
RCS (m²)

Purposes: earth_obs

External: N2YO · Heavens-Above · Gunter

§ Orbital elements

Epoch: 2026-05-25T03:08:14.997696Z

Period
94.78 min
Inclination
97.4223°
Eccentricity
0.0006010
Mean motion
15.19265898 rev/d
Perigee alt
503.9 km
Apogee alt
512.2 km
Semi-major
6,886.2 km
B*
2.6769e-4
RAAN
219.0135°
Arg perigee
98.1194°
Mean anomaly
262.0722°
Rev number
2,691

§ Raw data

FLOCK 4H-151 66718U 25276BE  26145.13072914  .00005579  00000+0  26769-3 0  99932 66718  97.4223 219.0135 0006010  98.1194 262.0722 15.19265898 26910

JSON: /api/v1/satellites/66718 · /tle

For live sub-satellite position, see the globe view (requires WebGL).

§ Visibility from observer

Set your observer location to see the next 7 days of passes ≥ 10°. The values pass through the URL so the page stays shareable.

No JS? Fill the form by hand. The geolocation button needs JavaScript.